EA2DUR Weather Reports


Display with metric or nautical units.
time (UTC)temp
F
wind
direction
speed
MPH
gust
MPH
rain 1hr
in
rain 24hr
in
rain mn
in
humidity
%
barometer
mb
20260508003021 46 94 0.0 2.0 0.00 0.00 0.00 94 944.7
20260508001536 47 96 0.0 3.0 0.00 0.00 0.00 94 944.8
20260508000016 47 105 0.0 2.0 0.00 0.00 0.00 93 944.8
20260507234517 47 105 0.0 1.0 0.00 0.00 0.00 92 944.9
20260507233017 48 105 0.0 2.0 0.00 0.00 0.00 92 944.7
20260507231510 48 105 1.0 2.0 0.00 0.00 0.00 91 944.8
20260507230009 49 111 1.0 3.0 0.00 0.00 0.00 89 945.0
20260507224507 51 263 1.0 4.0 0.00 0.00 0.00 89 945.1
20260507223004 51 188 2.0 3.0 0.00 0.00 0.00 89 945.1
20260507221601 50 183 0.0 5.0 0.00 0.00 0.00 92 945.0
20260507220055 49 180 2.0 5.0 0.00 0.00 0.00 93 945.0
20260507214600 48 125 0.0 1.0 0.00 0.00 0.00 92 945.0
20260507213055 49 38 0.0 4.0 0.00 0.00 0.00 91 945.0
20260507211555 50 66 2.0 3.0 0.00 0.00 0.00 90 944.9
20260507210055 49 103 1.0 3.0 0.00 0.00 0.00 89 944.8
20260507204558 50 56 2.0 4.0 0.00 0.00 0.00 88 944.6
20260507203053 51 70 2.0 3.0 0.00 0.00 0.00 87 944.5
20260507201558 52 88 2.0 3.0 0.00 0.00 0.00 85 944.3
20260507200101 53 42 2.0 3.0 0.00 0.00 0.00 82 944.2
20260507194552 54 96 2.0 5.0 0.00 0.00 0.00 79 944.0
20260507193053 55 80 1.0 2.0 0.00 0.00 0.00 78 943.8
20260507191556 56 109 2.0 3.0 0.00 0.00 0.00 76 943.8
20260507190054 57 165 2.0 5.0 0.00 0.00 0.00 72 944.0
20260507184552 57 215 3.0 7.0 0.00 0.00 0.00 74 943.9
20260507183051 57 202 1.0 6.0 0.00 0.00 0.00 76 943.9
20260507181559 58 159 1.0 3.0 0.00 0.00 0.00 77 943.9
20260507180048 59 98 2.0 5.0 0.00 0.00 0.00 73 943.9
20260507174554 59 333 1.0 6.0 0.00 0.00 0.00 72 943.9
20260507173047 62 17 1.0 5.0 0.00 0.00 0.00 66 943.7
20260507171548 63 167 2.0 6.0 0.00 0.00 0.00 57 943.5
20260507170050 63 111 3.0 6.0 0.00 0.00 0.00 57 943.5
20260507164546 63 136 2.0 5.0 0.00 0.00 0.00 56 943.5
20260507163044 64 118 2.0 5.0 0.00 0.00 0.00 54 943.6
20260507161545 64 96 3.0 5.0 0.00 0.00 0.00 52 943.7
20260507160043 64 109 4.0 8.0 0.00 0.00 0.00 50 943.4
20260507154547 64 153 3.0 12.0 0.00 0.00 0.00 54 943.2
20260507153048 64 140 4.0 14.0 0.00 0.00 0.00 56 942.8
20260507151537 63 138 5.0 11.0 0.00 0.00 0.00 61 943.2
20260507150039 63 113 7.0 12.0 0.00 0.00 0.00 60 943.6
20260507144534 64 128 4.0 12.0 0.00 0.00 0.00 57 943.8
20260507143035 64 127 6.0 18.0 0.00 0.00 0.00 60 943.9
20260507141531 63 117 6.0 14.0 0.00 0.00 0.00 62 943.9
20260507140030 63 154 11.0 18.0 0.00 0.00 0.00 59 944.0
20260507134531 63 143 6.0 11.0 0.00 0.00 0.00 63 944.1
20260507133027 62 207 2.0 9.0 0.00 0.00 0.00 66 944.2
20260507131534 61 128 6.0 14.0 0.00 0.00 0.00 66 944.6
20260507130022 61 150 7.0 16.0 0.00 0.00 0.00 64 944.9
20260507124520 60 186 8.0 15.0 0.00 0.00 0.00 72 945.2
20260507123021 60 207 10.0 21.0 0.00 0.00 0.00 67 945.4
20260507121520 63 155 7.0 13.0 0.00 0.00 0.00 61 945.4
20260507120033 64 165 5.0 12.0 0.00 0.00 0.00 59 945.1
20260507114518 63 199 7.0 13.0 0.00 0.00 0.00 60 945.3
20260507113015 63 111 8.0 14.0 0.00 0.00 0.00 61 945.2
20260507111514 63 118 3.0 9.0 0.00 0.00 0.00 59 945.3
20260507110009 62 194 3.0 8.0 0.00 0.00 0.00 65 945.4
20260507104510 61 186 5.0 11.0 0.00 0.00 0.00 66 945.4
20260507103100 60 167 3.0 11.0 0.00 0.00 0.00 69 945.4
20260507101604 56 198 3.0 9.0 0.00 0.00 0.00 85 945.7
20260507100051 54 290 4.0 7.0 0.00 0.00 0.00 95 946.0
20260507094547 52 261 2.0 5.0 0.00 0.00 0.00 99 946.1
20260507093051 51 278 2.0 5.0 0.00 0.00 0.00 99 946.2
20260507091541 49 275 3.0 5.0 0.00 0.00 0.00 100 946.4
20260507090037 48 289 2.0 5.0 0.00 0.00 0.00 99 946.5
20260507084533 47 240 3.0 5.0 0.00 0.00 0.00 99 946.5
20260507083029 46 288 1.0 3.0 0.00 0.00 0.00 99 946.6
20260507081539 45 223 0.0 5.0 0.00 0.00 0.00 99 946.7
20260507080024 45 208 1.0 3.0 0.00 0.00 0.00 99 946.7
20260507074544 44 176 1.0 3.0 0.00 0.00 0.00 99 946.7
20260507073022 44 244 1.0 3.0 0.00 0.00 0.00 99 946.7
20260507071521 44 59 0.0 2.0 0.00 0.00 0.00 99 946.8
20260507070021 44 120 0.0 3.0 0.00 0.00 0.00 99 946.8
20260507064519 43 128 1.0 3.0 0.00 0.00 0.00 99 946.7
20260507063023 43 122 1.0 4.0 0.00 0.00 0.00 99 946.8
20260507061515 42 127 1.0 3.0 0.00 0.00 0.00 99 946.9
20260507060012 42 116 1.0 5.0 0.00 0.00 0.00 98 946.8
20260507054514 42 117 3.0 5.0 0.00 0.00 0.00 99 946.8
20260507053011 42 119 1.0 5.0 0.00 0.00 0.00 99 946.7
20260507051508 42 74 0.0 3.0 0.00 0.00 0.00 98 946.8
20260507050022 42 111 2.0 3.0 0.00 0.00 0.00 98 946.8
20260507044506 42 97 1.0 2.0 0.00 0.00 0.00 98 946.9
20260507043005 42 298 0.0 2.0 0.00 0.00 0.00 98 947.0
20260507041504 42 258 0.0 3.0 0.00 0.00 0.00 99 947.0
20260507040006 42 167 0.0 2.0 0.00 0.00 0.00 98 946.9
20260507034501 42 131 2.0 5.0 0.00 0.00 0.00 98 947.2
20260507033001 41 117 1.0 3.0 0.00 0.00 0.00 98 947.4
20260507031609 41 54 0.0 2.0 0.00 0.00 0.00 98 947.0
20260507030101 41 68 1.0 2.0 0.00 0.00 0.00 97 947.1
20260507024558 42 41 1.0 3.0 0.00 0.00 0.00 98 947.1
20260507023106 43 55 1.0 3.0 0.00 0.00 0.00 98 947.1
20260507021557 42 85 1.0 3.0 0.00 0.00 0.00 98 947.4
20260507020057 42 94 1.0 3.0 0.00 0.00 0.00 98 947.4
20260507014603 42 117 1.0 2.0 0.00 0.00 0.00 98 947.5
20260507013054 42 150 1.0 2.0 0.00 0.00 0.00 98 947.5
20260507011553 41 122 0.0 3.0 0.00 0.00 0.00 98 947.6
20260507010051 41 109 1.0 3.0 0.00 0.00 0.00 97 947.7
20260507004551 42 28 0.0 3.0 0.00 0.00 0.00 97 947.7